Погода в Тиволине

Россия / Тверская область     57°14′47″N   37°37′05″E
темп.,
°C
ветер,
м/с
пор.,
м/с
влажн.,
%
обл.,
%
осадки,
мм/ч
давл.,
гПа
погр.,
м
8 августа, пн
пн800:00+14с2697100 1.7 1021264
03:00+14с269596 1.7 1022238
06:00+14с269649 0.0 1022261
09:00+16ссв467984 0.0 1022535
12:00+19всв346693 0.0 1023821
15:00+19в3469100 0.0 1022724
18:00+19в2371100 0.0 1022483
21:00+14св129181 0.0 102211
9 августа, вт
вт900:00+13ссв2293100 0.0 102324
03:00+12с2379100 0.0 102265
06:00+13ссв2588100 0.0 1023123
09:00+17ссв3565100 0.0 1023404
12:00+20ссв4556100 0.0 1022942
15:00+21св445061 0.0 10221504
18:00+19ссв236599 0.0 102265
21:00+15с33737 0.0 102237
10 августа, ср
ср1000:00+12с35805 0.0 102273
03:00+11ссв23950 0.0 102351
06:00+12с239051 0.0 102383
09:00+16с357623 0.0 1023439
12:00+21с45565 0.0 10231340
15:00+21с455150 0.3 10231904
18:00+20с3449100 0.0 1023169
21:00+14св22700 0.0 102416
11 августа, чт
чт1100:00+12ссз11793 0.0 102510
03:00+11ссз227813 0.0 102612
06:00+11ссз22745 0.0 102729
09:00+18с12545 0.0 1027343
12:00+22ссз12415 0.0 10261496
15:00+23зсз12375 0.0 10251880
18:00+22зюз235041 0.0 1024188
21:00+17з2262100 0.0 102432
12 августа, пт
пт1200:00+15зюз236685 0.0 102447
03:00+13з3576100 0.0 102580
06:00+13з367720 0.0 1025125
09:00+19з46575 0.0 1025439
12:00+24з57450 0.0 10241372
15:00+26зсз46440 0.0 10231709
18:00+24сз35555 0.0 1022454
21:00+19з22741 0.0 102320